User: anonymous   Login
Location: Columbia
(38.9520°N, 92.3340°W)
Time: 14:26:36
(UTC-06:00)
Language:

SJ-11-01 - Orbit

View from above orbital plane
View from above orbital plane
View from above satellite
View from above satellite

Ground track
Ground track

The orbit data is extracted from the following two-line orbital elements,

1 36088U 09061A   16345.36755250  .00000085  00000-0  27426-4 0  9991
2 36088  98.1653  30.3748 0012113 130.9032 229.3215 14.59899384377090
Epoch (UTC): 10 December 2016 08:49:16
Eccentricity: 0.0012113
inclination: 98.1653°
perigee height: 685 km
apogee height: 702 km
right ascension of ascending node: 30.3748°
argument of perigee: 130.9032°
revolutions per day: 14.59899384
mean anomaly at epoch: 229.3215°
orbit number at epoch: 37709

The dashed part of the orbit path shows where the satellite is in the earth's shadow,  

DLR